Omaha Offutt, NE

3:43 AM CDT on August 22, 2017 (GMT -0500)
Offutt Air Force Base

Weather History for KOFF - February, 2012

Change the Weather History Date:

Monday, February 6, 2012

  Actual Average Record
Temperature  
Mean Temperature 21 °F -  
Max Temperature 30 °F 35 °F 63 °F (2009)
Min Temperature 12 °F 17 °F -10 °F (2014)
Degree Days  
Heating Degree Days 44    
Moisture  
Dew Point 17 °F    
Average Humidity 89    
Maximum Humidity 93    
Minimum Humidity 80    
Precipitation  
Precipitation 0.00 in - - ()
Snow  
Snow 0.00 in - - ()
Snow Depth 6.00 in    
Sea Level Pressure  
Sea Level Pressure 30.26 in    
Wind  
Wind Speed 3 mph (South)    
Max Wind Speed 9 mph    
Max Gust Speed -    
Visibility 5 miles    
Events Fog    
Averages and records for this station are not official NWS values.
T = Trace of Precipitation, MM = Missing Value Source: NWS Daily Summary

Daily Weather History Graph

Daily Weather History Graph

Search for Another Location

Airport or City:

Trip Planner

Search our weather history database for the weather conditions in past years. The results will help you decide how hot, cold, wet, or windy it might be!

Date:

Astronomy

Feb. 06, 2012 Rise Set
Actual Time 7:29 AM CST 5:46 PM CST
Civil Twilight 7:00 AM CST 6:15 PM CST
Nautical Twilight 6:28 AM CST 6:47 PM CST
Astronomical Twilight 5:56 AM CST 7:19 PM CST
Moon 4:51 PM CST (2/6) 6:22 AM CST (2/6)
Length of Visible Light 11h 14m
Length of Day
10h 16m
Waxing Gibbous, 98% of the Moon is Illuminated
Feb 6
Waxing Gibbous
Feb 7
Full
Feb 14
Last Quarter
Feb 21
New
Feb 29
First Quarter

Hourly Weather History & Observations

Time (CST) Temp. Windchill Dew Point Humidity Pressure Visibility Wind Dir Wind Speed Gust Speed Precip Events Conditions
12:55 AM 18.7 °F 11.9 °F 16.7 °F 92% 30.31 in 0.8 mi SSW 4.6 mph - N/A   Mist
1:55 AM 17.4 °F 10.4 °F 15.3 °F 91% 30.30 in 0.5 mi SW 4.6 mph - N/A Fog Light Freezing Fog
2:55 AM 16.5 °F 9.4 °F 14.4 °F 91% 30.30 in 0.2 mi South 4.6 mph - N/A Fog Light Freezing Fog
3:55 AM 15.3 °F - 12.9 °F 90% 30.28 in 0.2 mi Calm Calm - N/A Fog Light Freezing Fog
4:55 AM 15.1 °F - 12.7 °F 90% 30.26 in 0.2 mi Calm Calm - N/A Fog Light Freezing Fog
5:55 AM 14.9 °F - 12.6 °F 90% 30.25 in 0.2 mi Calm Calm - N/A Fog Light Freezing Fog
6:55 AM 13.8 °F - 11.1 °F 89% 30.24 in 0.2 mi Calm Calm - N/A Fog Light Freezing Fog
7:55 AM 12.6 °F 6.5 °F 9.9 °F 89% 30.25 in 0.2 mi South 3.5 mph - N/A Fog Light Freezing Fog
8:16 AM 12.2 °F - 8.6 °F 85% 30.25 in 0.2 mi SSW 2.3 mph - N/A Fog Light Freezing Fog
8:22 AM 12.2 °F 6.1 °F 8.6 °F 85% - 0.2 mi SSW 3.5 mph - N/A Fog Light Freezing Drizzle
8:25 AM 12.2 °F 6.1 °F 8.6 °F 85% - 0.5 mi SSW 3.5 mph - N/A Fog Light Freezing Drizzle
8:32 AM 12.2 °F - 8.6 °F 85% - 0.5 mi Calm Calm - N/A Fog Light Freezing Fog
8:40 AM 12.2 °F - 8.6 °F 85% - 0.8 mi Calm Calm - N/A   Mist
8:42 AM 12.2 °F - 8.6 °F 85% - 0.8 mi Calm Calm - N/A   Mist
8:56 AM 12.2 °F - 10.4 °F 92% 30.38 in 2.5 mi SSW 2.3 mph - N/A   Mostly Cloudy
9:55 AM 14.0 °F - 12.2 °F 93% 30.37 in 4.0 mi Calm Calm - N/A   Clear
10:55 AM 17.6 °F 10.7 °F 15.8 °F 93% 30.37 in 8.0 mi South 4.6 mph - N/A   Clear
11:55 AM 21.2 °F 16.4 °F 17.6 °F 86% 30.35 in 10.0 mi SSE 3.5 mph - N/A   Clear
12:55 PM 23.0 °F 15.8 °F 19.4 °F 86% 30.33 in 10.0 mi South 5.8 mph - N/A   Clear
1:55 PM 26.4 °F 19.8 °F 22.5 °F 85% - 10.0 mi SSE 5.8 mph - N/A   Clear
1:56 PM 26.6 °F 21.2 °F 23.0 °F 86% 30.30 in 10.0 mi SSE 4.6 mph - N/A   Partly Cloudy
2:55 PM 28.4 °F 23.3 °F 23.0 °F 80% 30.28 in 10.0 mi SSE 4.6 mph - N/A   Partly Cloudy
3:55 PM 30.0 °F 25.2 °F 24.8 °F 81% 30.16 in 10.0 mi SSE 4.6 mph - N/A   Clear
4:55 PM 29.1 °F 24.1 °F 24.4 °F 83% 30.16 in 10.0 mi SSE 4.6 mph - N/A   Clear
5:55 PM 26.4 °F - 23.0 °F 87% 30.16 in 8.0 mi Calm Calm - N/A   Clear
6:15 PM 26.6 °F - 23.0 °F 86% - 8.0 mi Calm Calm - N/A   Clear
6:55 PM 21.6 °F - 19.8 °F 93% 30.17 in 5.0 mi Calm Calm - N/A   Clear
8:18 PM 24.8 °F 15.3 °F 23.0 °F 93% - 5.0 mi South 9.2 mph - N/A   Scattered Clouds
8:44 PM 21.2 °F 14.9 °F 19.4 °F 93% - 6.0 mi SSE 4.6 mph - N/A   Partly Cloudy
8:55 PM 23.5 °F 19.1 °F 21.4 °F 91% 30.17 in 9.0 mi ESE 3.5 mph - N/A   Mostly Cloudy
9:55 PM 25.7 °F - 23.2 °F 90% 30.19 in 8.0 mi Calm Calm - N/A   Scattered Clouds
10:42 PM 24.8 °F - 23.0 °F 93% - 6.0 mi Calm Calm - N/A   Partly Cloudy
10:55 PM 25.2 °F - 23.2 °F 92% 30.20 in 5.0 mi Calm Calm - N/A   Clear
10:56 PM 24.8 °F - 23.0 °F 93% - 6.0 mi Calm Calm - N/A   Clear
11:55 PM 26.1 °F - 23.4 °F 90% 30.21 in 6.0 mi Calm Calm - N/A   Mostly Cloudy